Probability
0 0 0 0 0 0 0 0 0 0 0 0 0 0 0 1 4 5 5 3 2 2 6 11 14 12 10 8 7 7 6 4 3 3 2 1 1 1 2 2 2 3 4 3
0 0 0 0 0 0 0 0 0 0 0 0 0 0 0 1 4 6 4 3 3 3 5 10 13 13 11 10 8 7 6 5 5 5 3 3 3 2 2 2 3 4 4 4
0 0 0 0 0 1 0 0 0 0 0 0 0 0 0 1 3 5 4 3 4 5 5 8 12 15 15 12 10 7 6 7 8 7 5 4 4 3 2 3 3 3 4 4
0 0 0 0 0 0 0 0 0 0 0 0 0 0 0 0 1 3 4 4 6 7 7 9 13 17 18 16 13 9 7 8 8 7 6 5 5 4 3 3 3 3 3 4
0 0 0 0 0 0 0 0 0 0 0 0 0 0 0 0 1 4 7 7 8 9 10 11 14 18 20 20 17 11 7 8 8 7 6 6 5 5 5 4 4 3 3 3
0 0 0 0 0 0 0 0 0 0 0 0 0 0 0 1 2 6 10 11 10 11 13 13 14 16 17 19 19 14 9 9 9 8 8 8 7 7 7 6 5 4 4 4
0 0 0 0 0 0 0 0 0 0 0 0 0 0 1 2 4 7 11 13 13 13 14 14 13 13 14 17 19 17 12 12 12 11 11 11 11 11 10 9 7 6 6 6
0 0 0 0 0 0 0 0 0 0 0 0 0 2 4 5 7 9 12 15 17 16 16 15 14 12 13 16 20 20 16 15 15 14 13 12 12 12 11 9 8 7 6 6
0 0 0 0 0 0 0 0 0 0 0 0 0 2 5 8 10 12 15 17 19 18 17 16 15 13 13 16 21 23 20 18 16 14 13 11 11 11 10 8 7 6 6 7
0 0 0 0 0 0 0 0 0 0 0 0 0 1 5 9 12 14 16 17 18 20 19 18 16 15 15 16 19 22 23 22 19 15 12 10 10 10 9 7 5 5 6 7
0 0 0 0 0 0 0 0 0 0 0 0 0 0 3 9 12 14 15 15 19 23 23 20 18 17 18 19 18 19 22 23 20 15 11 9 9 10 9 7 5 4 5 6
0 0 0 0 0 0 0 0 0 0 0 0 0 0 3 9 13 14 14 16 20 23 22 20 18 19 20 20 19 20 21 21 19 15 10 7 8 9 9 8 6 5 5 6
0 0 0 0 0 0 0 0 0 0 0 0 0 1 4 9 12 14 16 18 19 19 19 18 19 20 21 20 21 23 23 20 18 15 10 7 8 8 8 7 7 7 8 9
0 0 0 0 0 0 0 0 0 0 0 0 0 1 3 7 11 14 18 21 21 19 18 19 20 21 20 20 23 24 22 20 19 17 13 10 10 9 9 9 10 11 13 14
0 0 0 0 0 0 0 0 0 0 0 0 0 0 2 6 10 15 21 26 26 24 23 22 22 22 20 20 21 23 22 19 19 19 17 14 12 12 12 13 14 14 14 15
0 0 0 0 0 0 0 0 0 0 0 0 0 1 2 6 11 17 25 30 30 29 27 25 23 23 22 22 22 24 23 21 20 20 19 17 16 16 15 15 16 15 15 15
0 0 0 0 0 0 0 1 1 0 1 1 1 3 6 10 13 19 25 28 30 31 29 25 23 24 24 25 25 25 23 22 21 20 18 17 17 18 17 16 17 17 16 17
0 0 0 0 0 1 1 2 2 2 3 4 4 6 11 15 16 19 22 25 28 29 27 21 20 22 24 25 26 23 21 22 23 22 19 17 17 19 19 18 18 19 18 17
0 0 0 0 0 0 1 3 4 3 5 7 6 8 14 17 18 20 21 24 28 29 24 18 17 17 19 23 24 22 20 23 24 23 21 20 19 20 21 21 20 20 19 17
0 0 0 0 0 0 1 4 5 4 4 5 7 11 16 18 19 21 23 26 30 29 24 17 14 14 16 19 21 21 21 24 24 21 19 21 22 21 22 22 22 21 19 18
0 0 0 0 0 0 1 3 4 3 2 3 7 14 19 21 22 24 26 28 28 25 20 15 14 16 17 18 20 19 20 21 19 16 16 17 19 21 22 23 22 21 20 19
0 1 2 1 1 0 1 2 2 2 3 5 9 16 22 24 25 26 28 27 23 19 15 14 16 18 19 20 20 19 16 14 13 13 14 15 17 20 22 23 24 24 22 22
2 2 3 4 3 3 2 3 4 5 7 9 11 17 21 23 24 25 25 24 21 17 15 14 15 17 18 19 19 18 14 12 11 12 12 13 16 20 23 24 25 25 24 24
5 5 6 8 8 8 7 7 8 10 11 13 15 18 21 23 22 21 21 22 22 21 18 15 14 14 14 16 18 17 16 14 13 12 11 11 14 18 21 22 22 22 22 22
6 7 9 11 12 11 10 10 11 12 13 15 18 20 21 21 20 18 18 20 22 21 18 14 13 13 12 13 16 18 19 17 15 13 11 10 12 16 18 18 17 16 16 16
5 6 9 12 12 12 11 10 11 12 14 16 19 20 20 18 16 16 17 19 20 18 15 13 12 12 12 12 14 17 19 18 16 14 12 10 12 15 16 15 14 12 10 9
Wind_Speed
1 3 3 7 7 7 4 2 3 4 2 3 4 8 11 10 10 10 9 9 9 9 8 8 8 8 7 5 5 4 4 3 3 2 1 1 1 1 1 1 2 2 2 3
4 4 9 6 5 3 3 2 2 2 1 3 4 5 8 10 13 13 13 11 10 8 7 8 8 8 7 7 6 5 4 4 3 2 2 2 2 2 1 1 1 2 2 3
6 7 4 4 4 2 2 5 3 3 1 3 5 2 4 5 6 8 10 10 11 12 12 10 9 8 8 7 7 6 5 4 3 3 2 2 2 2 1 1 0 1 2 2
5 6 3 4 4 5 4 6 5 4 3 1 3 2 5 6 5 8 9 9 10 11 11 10 10 9 9 8 7 6 5 5 4 4 4 4 3 2 2 1 1 1 1 2
5 3 3 4 5 5 5 3 4 3 3 2 1 4 5 4 6 9 10 11 11 12 13 12 12 11 10 9 8 6 6 5 4 4 4 4 2 2 1 1 1 1 0 1
7 5 3 4 4 4 4 6 6 6 5 2 3 4 5 6 10 9 9 11 11 12 12 11 10 9 8 7 7 7 6 5 4 4 4 4 4 3 2 1 1 1 0 1
6 6 4 3 1 3 5 7 5 6 5 4 3 2 7 8 8 10 11 11 11 11 11 10 10 9 9 9 8 7 7 6 5 5 4 5 5 4 4 3 2 1 1 1
2 6 5 3 5 4 2 9 7 4 3 4 3 2 6 4 4 6 8 9 9 10 10 11 11 11 10 10 9 8 8 6 5 5 5 4 4 3 2 3 3 2 2 2
5 6 5 3 3 7 3 3 8 7 1 1 3 3 5 3 4 5 7 8 7 8 9 9 9 10 10 10 9 9 9 6 6 6 5 4 3 3 3 3 2 2 2 2
7 3 6 4 3 2 6 7 6 6 4 1 3 2 4 3 3 4 6 7 7 6 7 8 8 9 9 8 8 8 8 7 6 6 5 4 4 4 3 3 3 2 2 2
6 4 5 3 2 3 1 2 5 5 6 6 3 6 7 9 7 6 6 7 8 8 8 8 7 7 7 7 7 6 7 6 5 5 4 4 4 3 3 3 3 3 2 2
4 6 3 6 5 4 5 5 7 5 4 5 5 7 5 7 7 7 6 6 7 7 7 7 7 8 7 7 7 7 6 6 6 5 4 4 3 3 3 3 3 3 2 2
4 6 1 6 7 5 1 1 4 6 5 4 5 6 3 4 5 6 7 6 7 7 6 6 6 7 7 7 7 7 6 6 6 5 5 4 3 4 4 4 3 3 3 2
5 5 7 8 7 3 2 2 2 6 4 4 6 6 4 4 5 5 6 7 7 7 7 6 6 6 6 6 6 7 6 6 6 5 5 5 5 5 5 4 3 3 3 3
6 3 3 4 4 2 3 4 4 3 7 8 8 9 10 10 9 9 9 8 7 5 6 6 6 6 6 5 5 5 5 5 6 5 5 6 5 4 4 4 4 3 3 3
4 3 1 2 2 1 2 3 2 2 3 4 5 5 6 6 6 7 7 9 7 7 6 6 6 6 6 6 6 5 5 5 6 6 5 4 4 4 4 4 4 3 3 3
2 4 3 3 3 3 3 4 2 2 2 5 6 6 5 6 8 10 9 8 8 8 7 6 6 6 6 5 6 6 5 4 4 5 4 4 3 4 4 4 4 4 4 3
5 4 3 1 2 4 9 4 1 2 1 1 3 4 8 9 8 6 8 9 8 7 7 7 6 5 4 4 4 4 4 4 4 4 3 3 4 4 3 4 4 4 4 3
7 7 4 3 2 5 6 4 1 2 2 2 3 6 7 8 8 3 2 6 7 7 7 6 6 5 5 4 4 4 3 3 4 4 4 4 4 4 3 4 5 4 3 3
4 6 6 4 3 5 6 6 3 6 1 4 2 6 7 6 5 3 3 4 5 5 4 5 5 5 4 4 4 4 3 3 3 4 4 4 4 4 5 5 4 3 3 4
3 3 4 4 3 6 6 5 4 4 5 4 1 4 5 4 6 6 5 5 4 4 4 4 6 5 5 5 5 4 3 3 4 3 2 3 4 5 5 4 3 3 3 3
5 4 3 4 3 7 5 2 3 6 3 1 1 2 4 5 6 5 6 6 5 5 4 4 4 4 4 5 6 4 3 3 2 2 2 3 4 4 4 4 3 3 3 3
3 6 6 7 7 6 2 3 4 4 3 2 2 2 5 6 5 4 4 4 4 4 4 3 4 3 2 3 5 5 4 3 2 2 2 3 4 3 3 4 4 3 3 4
3 1 3 1 2 2 1 2 2 3 4 3 4 4 5 5 5 4 3 3 3 3 3 3 4 3 2 2 3 4 3 2 2 2 2 3 3 3 3 3 3 3 4 4
3 0 2 1 2 1 2 0 1 3 5 5 4 3 4 6 5 4 3 3 3 3 2 3 3 3 2 2 2 2 2 3 2 2 2 2 3 3 3 3 3 4 5 5
3 3 4 5 6 4 3 2 3 4 3 4 5 3 2 5 4 3 3 4 4 4 3 3 2 2 2 2 2 2 2 2 2 1 2 3 3 3 3 3 3 3 4 6
Wind_Direction
331 84 219 222 200 189 177 191 237 230 199 132 163 154 167 169 166 166 170 171 172 176 174 164 159 155 148 146 142 145 140 146 130 113 114 114 123 124 109 128 131 129 125 125
6 268 239 224 205 186 162 190 242 332 47 114 135 153 172 174 180 178 178 179 177 171 165 166 162 159 160 162 159 156 153 148 148 150 148 139 134 141 151 163 110 115 123 138
215 242 229 213 200 188 206 187 191 154 49 53 98 86 175 191 181 181 183 181 177 176 173 172 168 169 167 169 169 164 161 153 154 141 116 97 76 55 51 65 87 148 142 143
245 240 222 218 195 162 236 218 172 156 123 250 120 171 242 196 188 188 187 185 185 181 175 175 173 174 176 177 169 162 161 158 158 147 138 138 137 150 186 183 179 166 140 142
256 240 206 216 213 170 213 183 138 158 128 76 65 129 260 189 192 204 195 190 188 183 177 179 180 179 177 172 168 165 160 163 164 155 152 145 141 169 155 131 135 147 157 160
252 264 220 210 215 182 141 67 41 42 66 48 245 149 244 213 200 196 197 193 189 184 180 180 176 167 168 168 167 164 163 173 173 164 154 152 162 171 153 155 168 204 277 280
302 297 267 200 163 348 84 87 40 8 15 266 268 161 240 226 198 187 190 188 183 176 174 172 168 169 171 172 172 170 170 178 180 171 171 174 178 174 174 177 175 174 199 255
228 283 267 213 173 185 184 131 145 174 224 282 323 235 264 240 194 172 167 168 165 167 171 171 173 173 174 174 173 172 175 179 179 178 184 182 178 177 182 180 176 186 204 221
187 249 274 250 190 150 143 149 156 135 154 338 293 301 327 24 80 118 128 131 149 161 167 171 171 172 175 176 177 176 174 175 177 180 178 175 170 170 176 177 175 190 209 209
168 228 281 284 42 32 152 154 105 115 140 242 289 250 225 221 184 140 142 149 155 157 159 163 166 173 176 175 172 167 168 174 179 180 182 179 180 177 174 164 170 182 202 202
155 172 283 333 187 201 75 100 114 122 147 154 212 259 216 189 183 171 170 163 162 159 166 166 166 164 159 155 161 163 166 164 170 176 179 179 177 178 174 179 191 196 203 198
163 138 233 259 255 193 168 177 146 153 201 167 169 258 235 175 166 167 170 162 159 157 161 164 160 151 154 159 163 165 167 167 176 176 175 185 182 173 181 196 206 201 203 206
128 119 114 327 332 350 81 160 144 134 127 153 165 250 254 161 150 167 163 154 151 149 149 152 150 154 161 167 169 168 170 174 177 171 171 180 186 185 196 205 206 202 204 213
111 117 161 194 216 232 267 261 174 131 151 186 202 210 221 188 167 170 159 152 145 143 147 148 149 155 160 166 170 171 177 177 173 171 176 189 202 202 203 204 202 205 205 209
92 128 194 213 216 203 232 238 218 188 183 183 207 195 205 196 180 171 161 146 132 135 143 147 152 154 153 155 166 174 177 177 173 173 189 202 205 201 201 202 207 208 211 218
71 120 105 305 278 304 292 273 244 215 186 185 172 214 213 178 150 142 150 147 148 158 159 156 154 150 156 164 172 174 177 181 176 181 195 204 202 201 203 206 205 202 213 222
82 108 101 264 294 23 278 239 227 242 213 165 183 215 168 139 153 163 161 158 164 166 164 163 161 162 166 171 169 177 183 175 173 187 197 200 197 203 206 201 198 208 216 219
138 115 127 165 54 224 241 247 194 137 42 109 154 160 158 158 162 158 157 162 169 166 162 162 157 156 157 153 149 161 161 165 177 190 197 205 208 211 210 207 214 220 218 217
151 139 127 131 182 262 296 313 357 118 349 350 132 139 139 124 90 56 144 154 159 161 165 164 160 155 146 148 149 142 161 178 186 198 210 209 203 209 215 222 225 224 217 221
94 117 126 138 168 217 249 288 322 97 8 321 103 144 151 125 122 208 185 137 129 130 127 136 134 130 142 162 147 136 161 180 207 216 219 216 206 208 217 225 223 220 217 224
65 76 133 160 203 250 259 291 51 109 229 274 140 142 147 156 175 177 145 123 124 117 117 123 128 142 168 163 143 149 168 200 218 222 224 225 222 218 219 221 222 221 215 222
163 148 170 152 186 248 279 50 130 204 226 195 99 107 114 120 122 127 127 129 129 122 125 126 130 146 157 152 148 158 194 219 217 218 233 237 235 233 229 225 229 223 212 222
172 179 176 179 207 238 259 164 177 159 129 102 97 89 109 111 116 121 122 128 129 129 129 128 127 131 136 152 155 172 211 212 214 239 250 251 249 243 235 221 221 224 218 223
296 92 111 107 244 247 17 70 85 112 118 112 109 110 109 113 117 113 123 125 120 112 114 116 112 118 133 151 160 185 203 194 191 238 265 262 255 258 250 229 215 217 223 226
258 64 102 158 250 31 355 29 123 76 80 81 67 71 114 121 121 129 140 143 141 134 128 131 134 141 173 173 174 187 184 170 180 232 263 268 251 240 239 238 228 222 224 217
231 184 170 210 218 181 217 219 140 107 99 111 102 68 92 124 129 128 147 149 142 141 136 131 135 148 180 176 192 206 194 175 179 233 262 268 268 251 236 240 270 264 249 248